Wise, VA

3:47 AM EST on December 08, 2019 (GMT -0500)
Lonesome Pine

Weather History for KLNP - October, 2019

Change the Weather History Date:

Saturday, October 19, 2019

  Actual Average Record
Temperature  
Mean Temperature 54 °F -  
Max Temperature 64 °F 61 °F 82 °F (2016)
Min Temperature 44 °F 43 °F 32 °F (2015)
Degree Days  
Heating Degree Days 11    
Growing Degree Days 4 (Base 50)    
Moisture  
Dew Point 38 °F    
Average Humidity 57    
Maximum Humidity 100    
Minimum Humidity 30    
Precipitation  
Precipitation 0.33 in - - ()
Sea Level Pressure  
Sea Level Pressure 29.99 in    
Wind  
Wind Speed 4 mph (SSE)    
Max Wind Speed 9 mph    
Max Gust Speed -    
Visibility 10 miles    
Events Rain    
Averages and records for this station are not official NWS values.
T = Trace of Precipitation, MM = Missing Value Source: NWS Daily Summary

Daily Weather History Graph

Daily Weather History Graph

Search for Another Location

Airport or City:

Astronomy

Oct. 19, 2019 Rise Set
Actual Time 7:41 AM EDT 6:48 PM EDT
Civil Twilight 7:14 AM EDT 7:14 PM EDT
Nautical Twilight 6:44 AM EDT 7:44 PM EDT
Astronomical Twilight 6:14 AM EDT 8:14 PM EDT
Moon 11:02 PM EDT (10/19) 1:06 PM EDT (10/19)
Length of Visible Light 11h 59m
Length of Day
11h 07m
Waning Gibbous, 70% of the Moon is Illuminated
Oct 19
Waning Gibbous
Oct 21
Last Quarter
Oct 27
New
Nov 4
First Quarter
Nov 12
Full

Hourly Weather History & Observations

Time (EDT) Temp. Windchill Dew Point Humidity Pressure Visibility Wind Dir Wind Speed Gust Speed Precip Events Conditions
12:15 AM 50.0 °F - 32.0 °F 50% 30.02 in 10.0 mi Calm Calm - N/A   Clear
12:35 AM 50.0 °F - 32.0 °F 50% 30.02 in 10.0 mi SE 3.5 mph - N/A   Clear
12:55 AM 50.0 °F - 32.0 °F 50% 30.01 in 10.0 mi Calm Calm - N/A   Clear
1:15 AM 50.0 °F - 32.0 °F 50% 30.02 in 10.0 mi SSE 4.6 mph - N/A   Clear
1:35 AM 50.0 °F - 32.0 °F 50% 30.01 in 10.0 mi SSE 3.5 mph - N/A   Clear
1:55 AM 50.0 °F - 33.8 °F 54% 30.02 in 10.0 mi South 4.6 mph - N/A   Clear
2:15 AM 50.0 °F - 33.8 °F 54% 30.02 in 10.0 mi South 5.8 mph - N/A   Clear
2:35 AM 50.0 °F - 33.8 °F 54% 30.02 in 10.0 mi SSW 3.5 mph - N/A   Clear
2:55 AM 50.0 °F - 33.8 °F 54% 30.02 in 10.0 mi SSW 3.5 mph - N/A   Clear
3:15 AM 50.0 °F - 33.8 °F 54% 30.02 in 10.0 mi South 4.6 mph - N/A   Clear
3:35 AM 48.2 °F - 33.8 °F 58% 30.01 in 10.0 mi South 3.5 mph - N/A   Clear
3:55 AM 48.2 °F - 33.8 °F 58% 30.01 in 10.0 mi SSW 4.6 mph - N/A   Clear
4:15 AM 46.4 °F 44.3 °F 35.6 °F 66% 30.01 in 10.0 mi South 4.6 mph - N/A   Clear
4:35 AM 50.0 °F - 35.6 °F 58% 30.01 in 10.0 mi South 5.8 mph - N/A   Clear
4:55 AM 50.0 °F - 35.6 °F 58% 30.01 in 10.0 mi South 6.9 mph - N/A   Clear
5:15 AM 50.0 °F - 35.6 °F 58% 30.01 in 10.0 mi South 3.5 mph - N/A   Clear
5:35 AM 48.2 °F - 35.6 °F 62% 30.01 in 10.0 mi South 6.9 mph - N/A   Clear
5:55 AM 50.0 °F - 35.6 °F 58% 30.01 in 10.0 mi Calm Calm - N/A   Clear
6:15 AM 44.6 °F 42.2 °F 35.6 °F 71% 30.00 in 10.0 mi South 4.6 mph - N/A   Clear
6:35 AM 51.8 °F - 35.6 °F 54% 30.01 in 10.0 mi South 8.1 mph - N/A   Clear
6:55 AM 50.0 °F - 35.6 °F 58% 30.01 in 10.0 mi South 5.8 mph - N/A   Clear
7:15 AM 46.4 °F 43.5 °F 35.6 °F 66% 30.01 in 10.0 mi South 5.8 mph - N/A   Clear
7:35 AM 50.0 °F - 35.6 °F 58% 30.01 in 10.0 mi South 6.9 mph - N/A   Clear
7:55 AM 51.8 °F - 35.6 °F 54% 30.01 in 10.0 mi South 5.8 mph - N/A   Clear
8:15 AM 51.8 °F - 35.6 °F 54% 30.02 in 10.0 mi South 5.8 mph - N/A   Clear
8:35 AM 51.8 °F - 35.6 °F 54% 30.03 in 10.0 mi South 5.8 mph - N/A   Clear
8:55 AM 51.8 °F - 35.6 °F 54% 30.03 in 10.0 mi South 6.9 mph - N/A   Clear
9:15 AM 53.6 °F - 37.4 °F 54% 30.03 in 10.0 mi SSE 3.5 mph - N/A   Clear
9:35 AM 53.6 °F - 35.6 °F 51% 30.03 in 10.0 mi SSE 4.6 mph - N/A   Clear
9:55 AM 53.6 °F - 35.6 °F 51% 30.04 in 10.0 mi SSE 3.5 mph - N/A   Clear
10:15 AM 55.4 °F - 35.6 °F 47% 30.04 in 10.0 mi South 5.8 mph - N/A   Clear
10:35 AM 55.4 °F - 35.6 °F 47% 30.04 in 10.0 mi SE 4.6 mph - N/A   Clear
10:55 AM 59.0 °F - 35.6 °F 42% 30.04 in 10.0 mi South 5.8 mph - N/A   Clear
11:15 AM 59.0 °F - 35.6 °F 42% 30.04 in 10.0 mi SSE 5.8 mph - N/A   Clear
11:35 AM 59.0 °F - 33.8 °F 39% 30.04 in 10.0 mi South 9.2 mph - N/A   Clear
11:55 AM 59.0 °F - 33.8 °F 39% 30.04 in 10.0 mi South 8.1 mph - N/A   Clear
12:15 PM 59.0 °F - 35.6 °F 42% 30.04 in 10.0 mi SSE 4.6 mph - N/A   Clear
12:35 PM 59.0 °F - 33.8 °F 39% 30.04 in 10.0 mi South 6.9 mph - N/A   Clear
12:55 PM 60.8 °F - 33.8 °F 36% 30.03 in 10.0 mi South 5.8 mph - N/A   Clear
1:15 PM 62.6 °F - 33.8 °F 34% 30.02 in 10.0 mi South 9.2 mph - N/A   Clear
1:35 PM 64.4 °F - 33.8 °F 32% 30.01 in 10.0 mi South 9.2 mph - N/A   Clear
1:55 PM 62.6 °F - 32.0 °F 32% 30.00 in 10.0 mi SSE 5.8 mph - N/A   Clear
2:15 PM 64.4 °F - 32.0 °F 30% 30.00 in 10.0 mi South 5.8 mph - N/A   Clear
2:35 PM 64.4 °F - 32.0 °F 30% 29.98 in 10.0 mi SSW 8.1 mph - N/A   Clear
2:55 PM 64.4 °F - 32.0 °F 30% 29.97 in 10.0 mi South 5.8 mph - N/A   Clear
3:15 PM 64.4 °F - 33.8 °F 32% 29.96 in 10.0 mi SSE 3.5 mph - N/A   Clear
3:35 PM 64.4 °F - 33.8 °F 32% 29.96 in 10.0 mi SSE 4.6 mph - N/A   Scattered Clouds
3:55 PM 62.6 °F - 33.8 °F 34% 29.96 in 10.0 mi SSE 5.8 mph - N/A   Mostly Cloudy
4:15 PM 62.6 °F - 35.6 °F 37% 29.95 in 10.0 mi SSE 6.9 mph - N/A   Overcast
4:35 PM 62.6 °F - 37.4 °F 39% 29.95 in 10.0 mi SSE 4.6 mph - N/A   Overcast
4:55 PM 60.8 °F - 37.4 °F 42% 29.95 in 10.0 mi SSE 3.5 mph - N/A   Overcast
5:15 PM 60.8 °F - 39.2 °F 45% 29.94 in 10.0 mi SSE 4.6 mph - N/A   Mostly Cloudy
5:35 PM 60.8 °F - 41.0 °F 48% 29.94 in 10.0 mi South 4.6 mph - N/A Rain Light Rain
6:15 PM 59.0 °F - 41.0 °F 51% 29.93 in 10.0 mi SSE 3.5 mph - N/A Rain Light Rain
6:35 PM 57.2 °F - 42.8 °F 59% 29.93 in 10.0 mi SSE 4.6 mph - N/A   Light Drizzle
6:55 PM 55.4 °F - 42.8 °F 63% 29.93 in 10.0 mi SSE 4.6 mph - N/A Rain Light Rain
7:15 PM 55.4 °F - 44.6 °F 67% 29.94 in 10.0 mi South 5.8 mph - N/A   Drizzle
7:35 PM 53.6 °F - 44.6 °F 72% 29.94 in 10.0 mi SSE 5.8 mph - N/A Rain Rain
7:55 PM 51.8 °F - 44.6 °F 76% 29.94 in 10.0 mi SSE 5.8 mph - 0.02 in Rain Light Rain
8:15 PM 51.8 °F - 44.6 °F 76% 29.94 in 10.0 mi SSE 5.8 mph - N/A Rain Rain
8:35 PM 51.8 °F - 46.4 °F 82% 29.94 in 10.0 mi South 6.9 mph - 0.02 in Rain Light Rain
9:15 PM 51.8 °F - 51.8 °F 100% 29.94 in 10.0 mi SSE 5.8 mph - 0.02 in Rain Rain
9:35 PM 50.0 °F - 50.0 °F 100% 29.93 in 10.0 mi SE 6.9 mph - 0.06 in Rain Light Rain
9:55 PM 50.0 °F - 50.0 °F 100% 29.94 in 10.0 mi SSE 8.1 mph - 0.06 in Rain Rain
10:15 PM 50.0 °F - 50.0 °F 100% 29.93 in 10.0 mi South 5.8 mph - 0.01 in Rain Light Rain
10:35 PM 50.0 °F - 50.0 °F 100% 29.92 in 7.0 mi SSE 8.1 mph - 0.05 in Rain Rain
10:55 PM 50.0 °F - 50.0 °F 100% 29.92 in 7.0 mi SSE 4.6 mph - 0.09 in Rain Rain
11:15 PM 51.8 °F - 51.8 °F 100% 29.91 in 4.0 mi SE 3.5 mph - 0.06 in Rain Rain
11:35 PM 51.8 °F - 51.8 °F 100% 29.90 in 7.0 mi South 3.5 mph - 0.10 in Rain Rain
11:55 PM 51.8 °F - 51.8 °F 100% 29.89 in 10.0 mi ESE 4.6 mph - 0.14 in Rain Light Rain